Time,TemperatureF,DewpointF,PressureIn,WindDirection,WindDirectionDegrees,WindSpeedMPH,WindSpeedGustMPH,Humidity,HourlyPrecipIn,Conditions,Clouds,dailyrainin,SoftwareType,DateUTC
2013-04-04 00:00:00,30.7,16.0,29.71,WNW,292,0.0,2.8,50,0.00,,,0.00,Rainwise IP-100,2013-04-04 04:00:00,
2013-04-04 00:01:00,30.7,16.0,29.71,SSW,202,0.0,2.6,50,0.00,,,0.00,Rainwise IP-100,2013-04-04 04:01:00,
2013-04-04 00:07:00,30.8,16.0,29.71,ESE,112,1.9,2.8,50,0.00,,,0.00,Rainwise IP-100,2013-04-04 04:07:00,
2013-04-04 00:11:00,31.0,16.0,29.71,ENE,67,0.0,3.0,51,0.00,,,0.00,Rainwise IP-100,2013-04-04 04:11:00,
2013-04-04 00:16:00,31.0,16.0,29.72,NW,315,1.4,3.5,51,0.00,,,0.00,Rainwise IP-100,2013-04-04 04:16:00,
2013-04-04 00:22:00,31.0,16.0,29.71,ENE,67,0.0,3.0,51,0.00,,,0.00,Rainwise IP-100,2013-04-04 04:22:00,
2013-04-04 00:27:00,31.2,16.0,29.72,NNE,22,0.0,2.1,51,0.00,,,0.00,Rainwise IP-100,2013-04-04 04:27:00,
2013-04-04 00:31:00,31.1,16.0,29.72,WNW,292,1.4,2.3,52,0.00,,,0.00,Rainwise IP-100,2013-04-04 04:31:00,
2013-04-04 00:37:00,31.2,16.0,29.72,SSE,157,0.0,4.0,52,0.00,,,0.00,Rainwise IP-100,2013-04-04 04:37:00,
2013-04-04 00:42:00,31.3,16.0,29.72,WNW,292,0.0,6.1,52,0.00,,,0.00,Rainwise IP-100,2013-04-04 04:42:00,
2013-04-04 00:47:00,31.3,16.0,29.72,NE,45,1.9,4.2,52,0.00,,,0.00,Rainwise IP-100,2013-04-04 04:47:00,
2013-04-04 00:52:00,31.3,16.0,29.73,NNW,337,6.1,7.7,52,0.00,,,0.00,Rainwise IP-100,2013-04-04 04:52:00,
2013-04-04 00:57:00,31.3,16.0,29.72,NNE,22,0.0,7.7,52,0.00,,,0.00,Rainwise IP-100,2013-04-04 04:57:00,
2013-04-04 01:02:00,31.2,16.0,29.73,NNE,22,3.5,8.6,52,0.00,,,0.00,Rainwise IP-100,2013-04-04 05:02:00,
2013-04-04 01:07:00,31.1,16.0,29.73,NNE,22,2.1,5.1,52,0.00,,,0.00,Rainwise IP-100,2013-04-04 05:07:00,
2013-04-04 01:12:00,30.7,16.0,29.73,NNE,22,0.0,2.6,52,0.00,,,0.00,Rainwise IP-100,2013-04-04 05:12:00,
2013-04-04 01:17:00,30.4,16.0,29.73,NNE,22,0.0,1.6,53,0.00,,,0.00,Rainwise IP-100,2013-04-04 05:17:00,
2013-04-04 01:22:00,30.5,16.0,29.73,SE,135,1.2,4.0,53,0.00,,,0.00,Rainwise IP-100,2013-04-04 05:22:00,
2013-04-04 01:27:00,30.6,16.0,29.73,NNE,22,4.2,4.2,53,0.00,,,0.00,Rainwise IP-100,2013-04-04 05:27:00,
2013-04-04 01:32:00,30.9,16.0,29.74,NNW,337,2.6,9.1,51,0.00,,,0.00,Rainwise IP-100,2013-04-04 05:32:00,
2013-04-04 01:37:00,31.0,16.0,29.74,ESE,112,0.0,7.2,50,0.00,,,0.00,Rainwise IP-100,2013-04-04 05:37:00,
2013-04-04 01:42:00,31.0,14.0,29.74,NNW,337,0.0,3.7,49,0.00,,,0.00,Rainwise IP-100,2013-04-04 05:42:00,
2013-04-04 01:48:00,30.9,14.0,29.74,WSW,247,0.0,1.9,49,0.00,,,0.00,Rainwise IP-100,2013-04-04 05:48:00,
2013-04-04 01:53:00,30.8,14.0,29.74,WNW,292,2.8,6.3,48,0.00,,,0.00,Rainwise IP-100,2013-04-04 05:53:00,
2013-04-04 01:58:00,30.9,14.0,29.74,East,90,0.0,5.6,47,0.00,,,0.00,Rainwise IP-100,2013-04-04 05:58:00,
2013-04-04 02:03:00,30.9,14.0,29.74,NNW,337,3.7,4.0,46,0.00,,,0.00,Rainwise IP-100,2013-04-04 06:03:00,
2013-04-04 02:08:00,30.7,14.0,29.74,SW,225,0.0,3.0,46,0.00,,,0.00,Rainwise IP-100,2013-04-04 06:08:00,
2013-04-04 02:13:00,30.5,14.0,29.74,WNW,292,0.0,4.0,46,0.00,,,0.00,Rainwise IP-100,2013-04-04 06:13:00,
2013-04-04 02:18:00,30.4,14.0,29.74,NW,315,0.0,1.4,45,0.00,,,0.00,Rainwise IP-100,2013-04-04 06:18:00,
2013-04-04 02:23:00,30.1,14.0,29.74,NNE,22,1.6,3.5,46,0.00,,,0.00,Rainwise IP-100,2013-04-04 06:23:00,
2013-04-04 02:28:00,29.5,14.0,29.74,NNE,22,0.0,1.9,48,0.00,,,0.00,Rainwise IP-100,2013-04-04 06:28:00,
2013-04-04 02:33:00,28.9,14.0,29.73,NNE,22,0.0,0.0,50,0.00,,,0.00,Rainwise IP-100,2013-04-04 06:33:00,
2013-04-04 02:38:00,28.6,14.0,29.73,NNE,22,0.0,1.2,51,0.00,,,0.00,Rainwise IP-100,2013-04-04 06:38:00,
2013-04-04 02:43:00,28.7,14.0,29.74,WSW,247,1.6,2.8,50,0.00,,,0.00,Rainwise IP-100,2013-04-04 06:43:00,
2013-04-04 02:48:00,28.5,14.0,29.73,WSW,247,0.0,1.9,50,0.00,,,0.00,Rainwise IP-100,2013-04-04 06:48:00,
2013-04-04 02:53:00,28.1,14.0,29.73,SSW,202,0.0,2.3,51,0.00,,,0.00,Rainwise IP-100,2013-04-04 06:53:00,
2013-04-04 02:58:00,27.8,14.0,29.73,SSW,202,0.0,2.8,52,0.00,,,0.00,Rainwise IP-100,2013-04-04 06:58:00,
2013-04-04 03:04:00,27.9,14.0,29.74,SSW,202,1.6,4.2,51,0.00,,,0.00,Rainwise IP-100,2013-04-04 07:04:00,
2013-04-04 03:09:00,28.3,14.0,29.74,SSW,202,0.0,2.1,51,0.00,,,0.00,Rainwise IP-100,2013-04-04 07:09:00,
2013-04-04 03:14:00,28.3,14.0,29.74,SW,225,2.8,2.8,50,0.00,,,0.00,Rainwise IP-100,2013-04-04 07:14:00,
2013-04-04 03:19:00,28.5,14.0,29.74,NNW,337,2.1,4.0,50,0.00,,,0.00,Rainwise IP-100,2013-04-04 07:19:00,
2013-04-04 03:24:00,28.5,14.0,29.73,WNW,292,0.0,7.9,49,0.00,,,0.00,Rainwise IP-100,2013-04-04 07:24:00,
2013-04-04 03:29:00,27.9,14.0,29.73,WNW,292,0.0,0.0,50,0.00,,,0.00,Rainwise IP-100,2013-04-04 07:29:00,
2013-04-04 03:34:00,27.6,14.0,29.73,WNW,292,0.0,0.0,50,0.00,,,0.00,Rainwise IP-100,2013-04-04 07:34:00,
2013-04-04 03:40:00,27.0,14.0,29.73,WNW,292,0.0,0.0,52,0.00,,,0.00,Rainwise IP-100,2013-04-04 07:40:00,
2013-04-04 03:45:00,26.5,14.0,29.73,WNW,292,0.0,1.6,54,0.00,,,0.00,Rainwise IP-100,2013-04-04 07:45:00,
2013-04-04 03:50:00,26.6,14.0,29.73,WNW,292,0.0,1.2,54,0.00,,,0.00,Rainwise IP-100,2013-04-04 07:50:00,
2013-04-04 03:55:00,26.8,14.0,29.73,North,360,0.0,3.7,54,0.00,,,0.00,Rainwise IP-100,2013-04-04 07:55:00,
2013-04-04 04:00:00,27.0,14.0,29.74,SSW,202,0.0,3.5,53,0.00,,,0.00,Rainwise IP-100,2013-04-04 08:00:00,
2013-04-04 04:05:00,27.1,14.0,29.73,SSW,202,0.0,3.0,53,0.00,,,0.00,Rainwise IP-100,2013-04-04 08:05:00,
2013-04-04 04:10:00,26.9,14.0,29.73,SSW,202,0.0,3.5,54,0.00,,,0.00,Rainwise IP-100,2013-04-04 08:10:00,
2013-04-04 04:15:00,26.6,14.0,29.74,SSW,202,0.0,1.6,55,0.00,,,0.00,Rainwise IP-100,2013-04-04 08:15:00,
2013-04-04 04:20:00,26.2,14.0,29.74,SSW,202,0.0,0.0,56,0.00,,,0.00,Rainwise IP-100,2013-04-04 08:20:00,
2013-04-04 04:25:00,25.8,14.0,29.74,SSW,202,0.0,1.2,57,0.00,,,0.00,Rainwise IP-100,2013-04-04 08:25:00,
2013-04-04 04:30:00,25.6,14.0,29.74,SSW,202,0.0,1.2,58,0.00,,,0.00,Rainwise IP-100,2013-04-04 08:30:00,
2013-04-04 04:35:00,25.2,14.0,29.74,SSW,202,0.0,0.0,58,0.00,,,0.00,Rainwise IP-100,2013-04-04 08:35:00,
2013-04-04 04:40:00,25.2,14.0,29.74,SSW,202,0.0,1.4,58,0.00,,,0.00,Rainwise IP-100,2013-04-04 08:40:00,
2013-04-04 04:45:00,25.3,14.0,29.74,East,90,1.4,3.0,59,0.00,,,0.00,Rainwise IP-100,2013-04-04 08:45:00,
2013-04-04 04:50:00,25.3,16.0,29.74,East,90,0.0,1.9,61,0.00,,,0.00,Rainwise IP-100,2013-04-04 08:50:00,
2013-04-04 04:56:00,25.3,16.0,29.75,SSE,157,0.0,2.1,62,0.00,,,0.00,Rainwise IP-100,2013-04-04 08:56:00,
2013-04-04 05:01:00,25.1,16.0,29.74,SSE,157,1.6,1.6,62,0.00,,,0.00,Rainwise IP-100,2013-04-04 09:01:00,
2013-04-04 05:06:00,25.1,16.0,29.75,SSW,202,1.4,3.0,61,0.00,,,0.00,Rainwise IP-100,2013-04-04 09:06:00,
2013-04-04 05:11:00,25.2,16.0,29.75,SSW,202,1.4,3.0,61,0.00,,,0.00,Rainwise IP-100,2013-04-04 09:11:00,
2013-04-04 05:16:00,25.2,16.0,29.75,SSW,202,0.0,1.6,61,0.00,,,0.00,Rainwise IP-100,2013-04-04 09:16:00,
2013-04-04 05:21:00,25.6,14.0,29.75,SSW,202,0.0,1.9,60,0.00,,,0.00,Rainwise IP-100,2013-04-04 09:21:00,
2013-04-04 05:26:00,26.4,14.0,29.75,SSW,202,2.6,4.4,57,0.00,,,0.00,Rainwise IP-100,2013-04-04 09:26:00,
2013-04-04 05:32:00,27.2,14.0,29.75,SW,225,2.6,4.7,54,0.00,,,0.00,Rainwise IP-100,2013-04-04 09:32:00,
2013-04-04 05:37:00,28.0,14.0,29.76,SSW,202,0.0,4.4,52,0.00,,,0.00,Rainwise IP-100,2013-04-04 09:37:00,
2013-04-04 05:42:00,28.3,14.0,29.76,SSW,202,3.3,4.2,50,0.00,,,0.00,Rainwise IP-100,2013-04-04 09:42:00,
2013-04-04 05:47:00,28.2,14.0,29.76,SW,225,3.7,4.4,50,0.00,,,0.00,Rainwise IP-100,2013-04-04 09:47:00,
2013-04-04 05:52:00,28.0,14.0,29.76,SSW,202,1.2,4.9,51,0.00,,,0.00,Rainwise IP-100,2013-04-04 09:52:00,
2013-04-04 05:57:00,27.8,14.0,29.76,SW,225,2.1,3.7,51,0.00,,,0.00,Rainwise IP-100,2013-04-04 09:57:00,
2013-04-04 06:02:00,27.6,14.0,29.76,SW,225,0.0,3.7,52,0.00,,,0.00,Rainwise IP-100,2013-04-04 10:02:00,
2013-04-04 06:07:00,27.4,14.0,29.77,SSW,202,0.0,3.3,52,0.00,,,0.00,Rainwise IP-100,2013-04-04 10:07:00,
2013-04-04 06:12:00,27.4,14.0,29.77,SSE,157,1.2,2.6,53,0.00,,,0.00,Rainwise IP-100,2013-04-04 10:12:00,
2013-04-04 06:17:00,27.2,14.0,29.77,SSW,202,2.3,3.7,53,0.00,,,0.00,Rainwise IP-100,2013-04-04 10:17:00,
2013-04-04 06:22:00,27.1,14.0,29.78,SSW,202,3.5,3.5,54,0.00,,,0.00,Rainwise IP-100,2013-04-04 10:22:00,
2013-04-04 06:27:00,27.1,14.0,29.78,SSW,202,1.2,4.4,54,0.00,,,0.00,Rainwise IP-100,2013-04-04 10:27:00,
2013-04-04 06:32:00,27.0,14.0,29.78,SSW,202,2.8,3.7,54,0.00,,,0.00,Rainwise IP-100,2013-04-04 10:32:00,
2013-04-04 06:37:00,26.8,14.0,29.78,South,180,4.2,4.7,55,0.00,,,0.00,Rainwise IP-100,2013-04-04 10:37:00,
2013-04-04 06:42:00,26.7,14.0,29.79,SSW,202,3.3,4.7,56,0.00,,,0.00,Rainwise IP-100,2013-04-04 10:42:00,
2013-04-04 06:48:00,26.5,16.0,29.79,SSW,202,2.3,4.2,57,0.00,,,0.00,Rainwise IP-100,2013-04-04 10:48:00,
2013-04-04 06:53:00,26.3,14.0,29.79,SSW,202,0.0,3.3,58,0.00,,,0.00,Rainwise IP-100,2013-04-04 10:53:00,
2013-04-04 06:58:00,26.4,14.0,29.80,SSW,202,0.0,1.6,58,0.00,,,0.00,Rainwise IP-100,2013-04-04 10:58:00,
2013-04-04 07:03:00,26.6,16.0,29.80,SSE,157,0.0,0.0,59,0.00,,,0.00,Rainwise IP-100,2013-04-04 11:03:00,
2013-04-04 07:08:00,27.0,16.0,29.80,SSE,157,0.0,0.0,61,0.00,,,0.00,Rainwise IP-100,2013-04-04 11:08:00,
2013-04-04 07:13:00,27.2,18.0,29.80,SSE,157,0.0,0.0,64,0.00,,,0.00,Rainwise IP-100,2013-04-04 11:13:00,
2013-04-04 07:18:00,27.6,18.0,29.80,SSE,157,0.0,0.0,68,0.00,,,0.00,Rainwise IP-100,2013-04-04 11:18:00,
2013-04-04 07:23:00,28.3,21.0,29.81,SSE,157,0.0,0.0,72,0.00,,,0.00,Rainwise IP-100,2013-04-04 11:23:00,
2013-04-04 07:28:00,28.6,23.0,29.81,ESE,112,0.0,1.4,75,0.00,,,0.00,Rainwise IP-100,2013-04-04 11:28:00,
2013-04-04 07:33:00,28.8,23.0,29.81,ENE,67,0.0,2.8,75,0.00,,,0.00,Rainwise IP-100,2013-04-04 11:33:00,
2013-04-04 07:38:00,29.7,24.0,29.81,NNE,22,0.0,5.4,76,0.00,,,0.00,Rainwise IP-100,2013-04-04 11:38:00,
2013-04-04 07:43:00,30.7,24.0,29.82,SW,225,0.0,2.6,76,0.00,,,0.00,Rainwise IP-100,2013-04-04 11:43:00,
2013-04-04 07:48:00,31.0,23.0,29.82,SSE,157,3.5,7.7,73,0.00,,,0.00,Rainwise IP-100,2013-04-04 11:48:00,
2013-04-04 07:53:00,31.5,23.0,29.83,South,180,1.2,6.3,67,0.00,,,0.00,Rainwise IP-100,2013-04-04 11:53:00,
2013-04-04 07:59:00,32.4,21.0,29.83,SSE,157,2.1,6.1,62,0.00,,,0.00,Rainwise IP-100,2013-04-04 11:59:00,
2013-04-04 08:04:00,32.9,21.0,29.83,SSW,202,4.2,7.2,58,0.00,,,0.00,Rainwise IP-100,2013-04-04 12:04:00,
2013-04-04 08:09:00,33.2,18.0,29.83,SSE,157,2.6,6.8,54,0.00,,,0.00,Rainwise IP-100,2013-04-04 12:09:00,
2013-04-04 08:14:00,33.6,21.0,29.82,SSE,157,2.3,6.5,53,0.00,,,0.00,Rainwise IP-100,2013-04-04 12:14:00,
2013-04-04 08:20:00,33.8,18.0,29.82,SSE,157,3.0,10.3,50,0.00,,,0.00,Rainwise IP-100,2013-04-04 12:20:00,
2013-04-04 08:25:00,33.8,16.0,29.83,SSE,157,2.3,9.8,47,0.00,,,0.00,Rainwise IP-100,2013-04-04 12:25:00,
2013-04-04 08:30:00,34.2,16.0,29.83,SSE,157,2.8,5.6,47,0.00,,,0.00,Rainwise IP-100,2013-04-04 12:30:00,
2013-04-04 08:35:00,35.0,16.0,29.83,SW,225,0.0,5.4,47,0.00,,,0.00,Rainwise IP-100,2013-04-04 12:35:00,
2013-04-04 08:40:00,35.1,16.0,29.82,SSW,202,6.5,10.5,45,0.00,,,0.00,Rainwise IP-100,2013-04-04 12:40:00,
2013-04-04 08:45:00,34.6,14.0,29.83,WSW,247,4.4,9.6,42,0.00,,,0.00,Rainwise IP-100,2013-04-04 12:45:00,
2013-04-04 08:50:00,34.5,14.0,29.82,SSE,157,5.1,8.4,40,0.00,,,0.00,Rainwise IP-100,2013-04-04 12:50:00,
2013-04-04 08:55:00,35.2,14.0,29.82,SW,225,2.3,9.6,41,0.00,,,0.00,Rainwise IP-100,2013-04-04 12:55:00,
2013-04-04 09:00:00,35.6,16.0,29.82,WSW,247,0.0,7.5,41,0.00,,,0.00,Rainwise IP-100,2013-04-04 13:00:00,
2013-04-04 09:05:00,36.1,16.0,29.82,SSE,157,2.8,3.5,43,0.00,,,0.00,Rainwise IP-100,2013-04-04 13:05:00,
2013-04-04 09:10:00,36.6,16.0,29.82,SW,225,1.9,7.9,43,0.00,,,0.00,Rainwise IP-100,2013-04-04 13:10:00,
2013-04-04 09:15:00,36.5,16.0,29.82,SW,225,2.3,8.2,40,0.00,,,0.00,Rainwise IP-100,2013-04-04 13:15:00,
2013-04-04 09:20:00,36.1,14.0,29.82,SSW,202,5.6,11.2,38,0.00,,,0.00,Rainwise IP-100,2013-04-04 13:20:00,
2013-04-04 09:25:00,35.7,14.0,29.81,ENE,67,6.3,7.5,37,0.00,,,0.00,Rainwise IP-100,2013-04-04 13:25:00,
2013-04-04 09:30:00,36.0,14.0,29.81,NNE,22,5.6,10.7,36,0.00,,,0.00,Rainwise IP-100,2013-04-04 13:30:00,
2013-04-04 09:36:00,36.4,11.0,29.81,North,360,1.9,9.8,35,0.00,,,0.00,Rainwise IP-100,2013-04-04 13:36:00,
2013-04-04 09:41:00,36.9,11.0,29.81,SSE,157,1.9,11.0,34,0.00,,,0.00,Rainwise IP-100,2013-04-04 13:41:00,
2013-04-04 09:46:00,37.5,14.0,29.80,SW,225,7.9,10.5,34,0.00,,,0.00,Rainwise IP-100,2013-04-04 13:46:00,
2013-04-04 09:51:00,37.9,14.0,29.81,WNW,292,6.8,9.1,35,0.00,,,0.00,Rainwise IP-100,2013-04-04 13:51:00,
2013-04-04 09:56:00,38.3,14.0,29.81,West,270,6.5,12.1,34,0.00,,,0.00,Rainwise IP-100,2013-04-04 13:56:00,
2013-04-04 10:01:00,38.6,14.0,29.80,South,180,4.0,7.5,34,0.00,,,0.00,Rainwise IP-100,2013-04-04 14:01:00,
2013-04-04 10:06:00,39.1,14.0,29.81,SSE,157,1.9,9.1,33,0.00,,,0.00,Rainwise IP-100,2013-04-04 14:06:00,
2013-04-04 10:12:00,39.0,14.0,29.80,NE,45,4.7,9.8,32,0.00,,,0.00,Rainwise IP-100,2013-04-04 14:12:00,
2013-04-04 10:17:00,38.7,11.0,29.80,WSW,247,5.6,12.8,31,0.00,,,0.00,Rainwise IP-100,2013-04-04 14:17:00,
2013-04-04 10:22:00,39.0,11.0,29.80,NNW,337,4.0,10.0,30,0.00,,,0.00,Rainwise IP-100,2013-04-04 14:22:00,
2013-04-04 10:27:00,39.7,14.0,29.80,SW,225,2.6,6.3,31,0.00,,,0.00,Rainwise IP-100,2013-04-04 14:27:00,
2013-04-04 10:32:00,40.1,14.0,29.80,NNW,337,6.5,9.3,31,0.00,,,0.00,Rainwise IP-100,2013-04-04 14:32:00,
2013-04-04 10:37:00,39.9,14.0,29.79,SSE,157,2.3,6.5,31,0.00,,,0.00,Rainwise IP-100,2013-04-04 14:37:00,
2013-04-04 10:42:00,39.5,14.0,29.79,SSW,202,7.9,9.6,30,0.00,,,0.00,Rainwise IP-100,2013-04-04 14:42:00,
2013-04-04 10:47:00,39.4,11.0,29.79,South,180,6.3,13.1,29,0.00,,,0.00,Rainwise IP-100,2013-04-04 14:47:00,
2013-04-04 10:52:00,39.6,11.0,29.79,East,90,0.0,11.0,28,0.00,,,0.00,Rainwise IP-100,2013-04-04 14:52:00,
2013-04-04 10:57:00,39.9,11.0,29.78,SSW,202,8.4,10.7,28,0.00,,,0.00,Rainwise IP-100,2013-04-04 14:57:00,
2013-04-04 11:02:00,40.7,11.0,29.78,NNE,22,2.3,10.0,27,0.00,,,0.00,Rainwise IP-100,2013-04-04 15:02:00,
2013-04-04 11:08:00,41.4,11.0,29.78,ENE,67,3.5,9.8,26,0.00,,,0.00,Rainwise IP-100,2013-04-04 15:08:00,
2013-04-04 11:13:00,41.6,11.0,29.77,SSE,157,3.3,10.5,26,0.00,,,0.00,Rainwise IP-100,2013-04-04 15:13:00,
2013-04-04 11:18:00,41.9,11.0,29.77,SSE,157,5.8,6.5,26,0.00,,,0.00,Rainwise IP-100,2013-04-04 15:18:00,
2013-04-04 11:23:00,42.0,11.0,29.77,WSW,247,9.6,9.6,25,0.00,,,0.00,Rainwise IP-100,2013-04-04 15:23:00,
2013-04-04 11:28:00,41.5,8.0,29.76,SSW,202,6.1,10.7,24,0.00,,,0.00,Rainwise IP-100,2013-04-04 15:28:00,
2013-04-04 11:33:00,41.2,11.0,29.76,SE,135,4.4,10.7,25,0.00,,,0.00,Rainwise IP-100,2013-04-04 15:33:00,
2013-04-04 11:38:00,41.8,11.0,29.76,NNE,22,1.9,6.1,25,0.00,,,0.00,Rainwise IP-100,2013-04-04 15:38:00,
2013-04-04 11:43:00,42.8,11.0,29.75,WSW,247,7.0,10.5,26,0.00,,,0.00,Rainwise IP-100,2013-04-04 15:43:00,
2013-04-04 11:48:00,43.0,11.0,29.75,ENE,67,1.2,8.6,26,0.00,,,0.00,Rainwise IP-100,2013-04-04 15:48:00,
2013-04-04 11:53:00,43.0,11.0,29.75,South,180,4.2,7.0,26,0.00,,,0.00,Rainwise IP-100,2013-04-04 15:53:00,
2013-04-04 11:58:00,43.4,11.0,29.74,SSE,157,5.4,13.5,26,0.00,,,0.00,Rainwise IP-100,2013-04-04 15:58:00,
2013-04-04 12:03:00,42.8,11.0,29.74,SE,135,2.6,14.5,24,0.00,,,0.00,Rainwise IP-100,2013-04-04 16:03:00,
2013-04-04 12:08:00,42.6,11.0,29.74,South,180,3.5,11.2,24,0.00,,,0.00,Rainwise IP-100,2013-04-04 16:08:00,
2013-04-04 12:13:00,43.2,11.0,29.74,SSW,202,2.8,9.1,24,0.00,,,0.00,Rainwise IP-100,2013-04-04 16:13:00,
2013-04-04 12:19:00,43.7,11.0,29.73,SSW,202,8.9,10.5,24,0.00,,,0.00,Rainwise IP-100,2013-04-04 16:19:00,
2013-04-04 12:24:00,43.8,11.0,29.73,SSE,157,4.4,12.1,23,0.00,,,0.00,Rainwise IP-100,2013-04-04 16:24:00,
2013-04-04 12:29:00,43.9,11.0,29.73,SSE,157,1.4,7.5,23,0.00,,,0.00,Rainwise IP-100,2013-04-04 16:29:00,
2013-04-04 12:34:00,44.0,8.0,29.72,SSW,202,9.1,14.5,22,0.00,,,0.00,Rainwise IP-100,2013-04-04 16:34:00,
2013-04-04 12:39:00,43.4,8.0,29.72,SSW,202,11.7,15.9,22,0.00,,,0.00,Rainwise IP-100,2013-04-04 16:39:00,
2013-04-04 12:44:00,43.5,8.0,29.72,SSW,202,8.2,14.0,22,0.00,,,0.00,Rainwise IP-100,2013-04-04 16:44:00,
2013-04-04 12:49:00,43.7,11.0,29.72,WSW,247,5.6,11.9,23,0.00,,,0.00,Rainwise IP-100,2013-04-04 16:49:00,
2013-04-04 12:55:00,44.1,11.0,29.72,SSW,202,9.8,9.8,24,0.00,,,0.00,Rainwise IP-100,2013-04-04 16:55:00,
2013-04-04 13:00:00,44.4,11.0,29.72,SSW,202,2.3,14.2,24,0.00,,,0.00,Rainwise IP-100,2013-04-04 17:00:00,
2013-04-04 13:05:00,44.5,11.0,29.72,SSW,202,7.5,12.4,23,0.00,,,0.00,Rainwise IP-100,2013-04-04 17:05:00,
2013-04-04 13:10:00,44.8,11.0,29.72,SSW,202,14.9,18.2,23,0.00,,,0.00,Rainwise IP-100,2013-04-04 17:10:00,
2013-04-04 13:15:00,45.0,11.0,29.72,SW,225,8.6,16.3,23,0.00,,,0.00,Rainwise IP-100,2013-04-04 17:15:00,
2013-04-04 13:20:00,45.1,11.0,29.70,SSW,202,13.3,16.3,23,0.00,,,0.00,Rainwise IP-100,2013-04-04 17:20:00,
2013-04-04 13:25:00,45.3,11.0,29.71,South,180,9.8,19.4,22,0.00,,,0.00,Rainwise IP-100,2013-04-04 17:25:00,
2013-04-04 13:30:00,45.5,11.0,29.70,WSW,247,2.8,14.9,22,0.00,,,0.00,Rainwise IP-100,2013-04-04 17:30:00,
2013-04-04 13:35:00,45.8,11.0,29.70,WSW,247,5.8,8.4,22,0.00,,,0.00,Rainwise IP-100,2013-04-04 17:35:00,
2013-04-04 13:40:00,46.3,11.0,29.69,ENE,67,4.0,8.4,22,0.00,,,0.00,Rainwise IP-100,2013-04-04 17:40:00,
2013-04-04 13:45:00,47.0,11.0,29.69,South,180,2.6,7.2,22,0.00,,,0.00,Rainwise IP-100,2013-04-04 17:45:00,
2013-04-04 13:50:00,47.7,11.0,29.69,SSE,157,10.5,11.9,22,0.00,,,0.00,Rainwise IP-100,2013-04-04 17:50:00,
2013-04-04 13:55:00,47.6,11.0,29.69,SSW,202,9.6,18.2,21,0.00,,,0.00,Rainwise IP-100,2013-04-04 17:55:00,
2013-04-04 14:00:00,47.8,11.0,29.69,WSW,247,8.2,11.4,21,0.00,,,0.00,Rainwise IP-100,2013-04-04 18:00:00,
2013-04-04 14:05:00,47.8,11.0,29.69,WSW,247,3.5,19.8,21,0.00,,,0.00,Rainwise IP-100,2013-04-04 18:05:00,
2013-04-04 14:11:00,47.3,11.0,29.69,SSW,202,6.8,14.0,21,0.00,,,0.00,Rainwise IP-100,2013-04-04 18:11:00,
2013-04-04 14:16:00,47.3,11.0,29.69,SSW,202,9.6,12.4,22,0.00,,,0.00,Rainwise IP-100,2013-04-04 18:16:00,
2013-04-04 14:21:00,47.3,11.0,29.68,SW,225,15.2,19.6,22,0.00,,,0.00,Rainwise IP-100,2013-04-04 18:21:00,
2013-04-04 14:26:00,47.4,11.0,29.68,SSW,202,6.1,21.0,22,0.00,,,0.00,Rainwise IP-100,2013-04-04 18:26:00,
2013-04-04 14:31:00,47.4,11.0,29.67,SSW,202,12.8,16.6,22,0.00,,,0.00,Rainwise IP-100,2013-04-04 18:31:00,
2013-04-04 14:36:00,47.2,11.0,29.67,SW,225,0.0,19.8,22,0.00,,,0.00,Rainwise IP-100,2013-04-04 18:36:00,
2013-04-04 14:41:00,47.3,11.0,29.67,WSW,247,2.6,10.0,22,0.00,,,0.00,Rainwise IP-100,2013-04-04 18:41:00,
2013-04-04 14:46:00,48.0,14.0,29.67,WSW,247,5.8,8.6,23,0.00,,,0.00,Rainwise IP-100,2013-04-04 18:46:00,
2013-04-04 14:52:00,48.7,14.0,29.67,SSW,202,8.9,19.6,23,0.00,,,0.00,Rainwise IP-100,2013-04-04 18:52:00,
2013-04-04 14:57:00,48.5,14.0,29.66,SSE,157,7.5,14.7,22,0.00,,,0.00,Rainwise IP-100,2013-04-04 18:57:00,
2013-04-04 15:02:00,48.6,14.0,29.65,SW,225,1.2,13.3,22,0.00,,,0.00,Rainwise IP-100,2013-04-04 19:02:00,
2013-04-04 15:07:00,49.1,14.0,29.65,SE,135,2.3,13.8,22,0.00,,,0.00,Rainwise IP-100,2013-04-04 19:07:00,
2013-04-04 15:12:00,49.4,14.0,29.65,SSE,157,7.9,12.1,22,0.00,,,0.00,Rainwise IP-100,2013-04-04 19:12:00,
2013-04-04 15:17:00,49.7,14.0,29.64,SSE,157,2.8,11.7,22,0.00,,,0.00,Rainwise IP-100,2013-04-04 19:17:00,
2013-04-04 15:22:00,49.9,14.0,29.64,NNE,22,8.2,14.5,22,0.00,,,0.00,Rainwise IP-100,2013-04-04 19:22:00,
2013-04-04 15:27:00,50.1,14.0,29.63,SW,225,3.7,15.4,22,0.00,,,0.00,Rainwise IP-100,2013-04-04 19:27:00,
2013-04-04 15:32:00,50.4,14.0,29.64,SSW,202,7.9,12.4,22,0.00,,,0.00,Rainwise IP-100,2013-04-04 19:32:00,
2013-04-04 15:37:00,50.4,14.0,29.63,SSW,202,8.4,16.1,22,0.00,,,0.00,Rainwise IP-100,2013-04-04 19:37:00,
2013-04-04 15:42:00,50.2,14.0,29.63,SSW,202,11.0,12.1,22,0.00,,,0.00,Rainwise IP-100,2013-04-04 19:42:00,
2013-04-04 15:47:00,50.1,14.0,29.62,WSW,247,3.5,11.4,22,0.00,,,0.00,Rainwise IP-100,2013-04-04 19:47:00,
2013-04-04 15:52:00,50.7,14.0,29.62,SSE,157,4.9,10.5,22,0.00,,,0.00,Rainwise IP-100,2013-04-04 19:52:00,
2013-04-04 15:57:00,51.5,16.0,29.62,SSW,202,4.0,7.0,22,0.00,,,0.00,Rainwise IP-100,2013-04-04 19:57:00,
2013-04-04 16:03:00,52.2,16.0,29.61,SSW,202,3.5,8.9,22,0.00,,,0.00,Rainwise IP-100,2013-04-04 20:03:00,
2013-04-04 16:08:00,52.2,14.0,29.61,SSE,157,1.2,10.3,21,0.00,,,0.00,Rainwise IP-100,2013-04-04 20:08:00,
2013-04-04 16:13:00,52.1,14.0,29.61,ENE,67,4.4,10.0,21,0.00,,,0.00,Rainwise IP-100,2013-04-04 20:13:00,
2013-04-04 16:18:00,52.2,14.0,29.61,SSE,157,2.3,8.9,21,0.00,,,0.00,Rainwise IP-100,2013-04-04 20:18:00,
2013-04-04 16:23:00,52.2,16.0,29.61,SSW,202,4.2,11.2,22,0.00,,,0.00,Rainwise IP-100,2013-04-04 20:23:00,
2013-04-04 16:28:00,52.4,16.0,29.60,SSW,202,8.6,13.3,22,0.00,,,0.00,Rainwise IP-100,2013-04-04 20:28:00,
2013-04-04 16:33:00,51.9,16.0,29.60,SSW,202,8.6,16.6,22,0.00,,,0.00,Rainwise IP-100,2013-04-04 20:33:00,
2013-04-04 16:38:00,51.2,14.0,29.60,WNW,292,2.3,14.5,22,0.00,,,0.00,Rainwise IP-100,2013-04-04 20:38:00,
2013-04-04 16:43:00,51.0,14.0,29.59,SSW,202,3.3,14.7,22,0.00,,,0.00,Rainwise IP-100,2013-04-04 20:43:00,
2013-04-04 16:48:00,51.1,16.0,29.59,SW,225,2.1,11.7,23,0.00,,,0.00,Rainwise IP-100,2013-04-04 20:48:00,
2013-04-04 16:53:00,51.4,16.0,29.58,South,180,4.9,11.0,23,0.00,,,0.00,Rainwise IP-100,2013-04-04 20:53:00,
2013-04-04 16:58:00,51.6,16.0,29.58,SSE,157,4.0,11.9,23,0.00,,,0.00,Rainwise IP-100,2013-04-04 20:58:00,
2013-04-04 17:03:00,51.6,16.0,29.58,SSW,202,7.5,13.5,23,0.00,,,0.00,Rainwise IP-100,2013-04-04 21:03:00,
2013-04-04 17:08:00,51.5,16.0,29.58,NW,315,1.6,14.9,23,0.00,,,0.00,Rainwise IP-100,2013-04-04 21:08:00,
2013-04-04 17:14:00,51.4,16.0,29.58,SSE,157,6.8,8.4,23,0.00,,,0.00,Rainwise IP-100,2013-04-04 21:14:00,
2013-04-04 17:19:00,51.5,16.0,29.57,SSW,202,9.6,18.0,23,0.00,,,0.00,Rainwise IP-100,2013-04-04 21:19:00,
2013-04-04 17:24:00,51.3,16.0,29.57,SSE,157,2.3,14.7,23,0.00,,,0.00,Rainwise IP-100,2013-04-04 21:24:00,
2013-04-04 17:29:00,51.2,16.0,29.58,SSW,202,4.7,12.6,23,0.00,,,0.00,Rainwise IP-100,2013-04-04 21:29:00,
2013-04-04 17:34:00,51.4,16.0,29.58,SSE,157,4.4,6.8,23,0.00,,,0.00,Rainwise IP-100,2013-04-04 21:34:00,
2013-04-04 17:39:00,51.4,16.0,29.58,SSW,202,4.4,9.8,23,0.00,,,0.00,Rainwise IP-100,2013-04-04 21:39:00,
2013-04-04 17:44:00,51.3,16.0,29.57,SSW,202,11.7,16.1,23,0.00,,,0.00,Rainwise IP-100,2013-04-04 21:44:00,
2013-04-04 17:49:00,51.2,16.0,29.57,SSW,202,10.5,14.2,23,0.00,,,0.00,Rainwise IP-100,2013-04-04 21:49:00,
2013-04-04 17:54:00,51.1,16.0,29.57,SSE,157,7.7,12.1,23,0.00,,,0.00,Rainwise IP-100,2013-04-04 21:54:00,
2013-04-04 17:59:00,50.9,16.0,29.57,SSE,157,10.3,18.0,23,0.00,,,0.00,Rainwise IP-100,2013-04-04 21:59:00,
2013-04-04 18:04:00,50.6,16.0,29.57,SSW,202,1.4,11.7,23,0.00,,,0.00,Rainwise IP-100,2013-04-04 22:04:00,
2013-04-04 18:09:00,50.4,16.0,29.58,SSW,202,16.6,16.6,23,0.00,,,0.00,Rainwise IP-100,2013-04-04 22:09:00,
2013-04-04 18:15:00,50.1,16.0,29.57,SW,225,15.4,16.6,24,0.00,,,0.00,Rainwise IP-100,2013-04-04 22:15:00,
2013-04-04 18:20:00,50.0,16.0,29.57,SSW,202,7.9,17.0,24,0.00,,,0.00,Rainwise IP-100,2013-04-04 22:20:00,
2013-04-04 18:25:00,50.0,16.0,29.57,SSE,157,7.5,14.7,24,0.00,,,0.00,Rainwise IP-100,2013-04-04 22:25:00,
2013-04-04 18:30:00,49.8,16.0,29.58,SW,225,8.2,14.0,24,0.00,,,0.00,Rainwise IP-100,2013-04-04 22:30:00,
2013-04-04 18:35:00,49.7,16.0,29.58,SSW,202,4.9,12.6,24,0.00,,,0.00,Rainwise IP-100,2013-04-04 22:35:00,
2013-04-04 18:40:00,49.5,16.0,29.58,WSW,247,7.7,8.6,25,0.00,,,0.00,Rainwise IP-100,2013-04-04 22:40:00,
2013-04-04 18:45:00,49.3,16.0,29.58,South,180,5.1,7.7,25,0.00,,,0.00,Rainwise IP-100,2013-04-04 22:45:00,
2013-04-04 18:50:00,49.1,16.0,29.57,SSE,157,0.0,5.8,26,0.00,,,0.00,Rainwise IP-100,2013-04-04 22:50:00,
2013-04-04 18:55:00,48.7,16.0,29.58,ESE,112,1.2,3.3,26,0.00,,,0.00,Rainwise IP-100,2013-04-04 22:55:00,
2013-04-04 19:00:00,48.3,16.0,29.57,SSE,157,1.6,1.6,27,0.00,,,0.00,Rainwise IP-100,2013-04-04 23:00:00,
2013-04-04 19:05:00,48.0,16.0,29.58,SW,225,2.8,3.3,27,0.00,,,0.00,Rainwise IP-100,2013-04-04 23:05:00,
2013-04-04 19:10:00,47.6,16.0,29.57,WSW,247,0.0,3.5,28,0.00,,,0.00,Rainwise IP-100,2013-04-04 23:10:00,
2013-04-04 19:15:00,47.2,16.0,29.57,WSW,247,0.0,1.6,28,0.00,,,0.00,Rainwise IP-100,2013-04-04 23:15:00,
2013-04-04 19:20:00,46.5,16.0,29.57,WSW,247,0.0,0.0,29,0.00,,,0.00,Rainwise IP-100,2013-04-04 23:20:00,
2013-04-04 19:25:00,46.1,16.0,29.57,NNW,337,0.0,2.1,29,0.00,,,0.00,Rainwise IP-100,2013-04-04 23:25:00,
2013-04-04 19:31:00,45.8,16.0,29.57,NNW,337,1.2,1.4,30,0.00,,,0.00,Rainwise IP-100,2013-04-04 23:31:00,
2013-04-04 19:36:00,45.5,18.0,29.57,WSW,247,0.0,1.9,31,0.00,,,0.00,Rainwise IP-100,2013-04-04 23:36:00,
2013-04-04 19:41:00,45.1,18.0,29.57,WSW,247,0.0,0.0,32,0.00,,,0.00,Rainwise IP-100,2013-04-04 23:41:00,
2013-04-04 19:46:00,44.4,16.0,29.57,WSW,247,1.6,0.0,32,0.00,,,0.00,Rainwise IP-100,2013-04-04 23:46:00,
2013-04-04 19:51:00,44.2,18.0,29.57,South,180,0.0,3.0,33,0.00,,,0.00,Rainwise IP-100,2013-04-04 23:51:00,
2013-04-04 19:56:00,44.0,18.0,29.57,South,180,0.0,0.0,33,0.00,,,0.00,Rainwise IP-100,2013-04-04 23:56:00,
2013-04-04 20:01:00,43.4,16.0,29.57,ESE,112,0.0,1.2,33,0.00,,,0.00,Rainwise IP-100,2013-04-05 00:01:00,
2013-04-04 20:07:00,43.2,18.0,29.57,SSW,202,0.0,2.8,34,0.00,,,0.00,Rainwise IP-100,2013-04-05 00:07:00,
2013-04-04 20:12:00,42.9,18.0,29.57,SSW,202,0.0,0.0,35,0.00,,,0.00,Rainwise IP-100,2013-04-05 00:12:00,
2013-04-04 20:17:00,42.3,16.0,29.57,NNW,337,2.1,3.0,35,0.00,,,0.00,Rainwise IP-100,2013-04-05 00:17:00,
2013-04-04 20:22:00,41.9,16.0,29.57,NNE,22,1.4,3.0,35,0.00,,,0.00,Rainwise IP-100,2013-04-05 00:22:00,
2013-04-04 20:27:00,41.7,18.0,29.57,NNE,22,1.9,1.9,36,0.00,,,0.00,Rainwise IP-100,2013-04-05 00:27:00,
2013-04-04 20:32:00,41.4,16.0,29.57,NNE,22,0.0,2.1,36,0.00,,,0.00,Rainwise IP-100,2013-04-05 00:32:00,
2013-04-04 20:37:00,41.4,18.0,29.57,NNE,22,0.0,2.3,37,0.00,,,0.00,Rainwise IP-100,2013-04-05 00:37:00,
2013-04-04 20:42:00,41.2,18.0,29.57,NNE,22,0.0,2.6,38,0.00,,,0.00,Rainwise IP-100,2013-04-05 00:42:00,
2013-04-04 20:47:00,40.5,18.0,29.57,NNE,22,0.0,1.9,39,0.00,,,0.00,Rainwise IP-100,2013-04-05 00:47:00,
2013-04-04 20:52:00,39.6,18.0,29.57,NNE,22,1.4,1.4,40,0.00,,,0.00,Rainwise IP-100,2013-04-05 00:52:00,
2013-04-04 20:57:00,38.8,18.0,29.57,NNE,22,1.4,1.6,41,0.00,,,0.00,Rainwise IP-100,2013-04-05 00:57:00,
2013-04-04 21:02:00,38.4,18.0,29.57,NNE,22,0.0,1.6,42,0.00,,,0.00,Rainwise IP-100,2013-04-05 01:02:00,
2013-04-04 21:07:00,38.3,18.0,29.57,NNE,22,0.0,0.0,43,0.00,,,0.00,Rainwise IP-100,2013-04-05 01:07:00,
2013-04-04 21:12:00,37.9,18.0,29.56,NNE,22,0.0,1.4,44,0.00,,,0.00,Rainwise IP-100,2013-04-05 01:12:00,
2013-04-04 21:17:00,37.4,18.0,29.56,NNE,22,0.0,1.2,45,0.00,,,0.00,Rainwise IP-100,2013-04-05 01:17:00,
2013-04-04 21:23:00,37.0,18.0,29.56,NNE,22,0.0,1.4,46,0.00,,,0.00,Rainwise IP-100,2013-04-05 01:23:00,
2013-04-04 21:28:00,37.0,18.0,29.56,NNE,22,0.0,1.2,47,0.00,,,0.00,Rainwise IP-100,2013-04-05 01:28:00,
2013-04-04 21:33:00,37.1,21.0,29.56,NNE,22,0.0,0.0,48,0.00,,,0.00,Rainwise IP-100,2013-04-05 01:33:00,
2013-04-04 21:38:00,36.9,21.0,29.56,NNE,22,0.0,0.0,49,0.00,,,0.00,Rainwise IP-100,2013-04-05 01:38:00,
2013-04-04 21:43:00,36.5,21.0,29.56,NNE,22,0.0,0.0,50,0.00,,,0.00,Rainwise IP-100,2013-04-05 01:43:00,
2013-04-04 21:48:00,36.0,21.0,29.56,NNE,22,0.0,0.0,52,0.00,,,0.00,Rainwise IP-100,2013-04-05 01:48:00,
2013-04-04 21:53:00,35.3,21.0,29.56,NNE,22,0.0,0.0,53,0.00,,,0.00,Rainwise IP-100,2013-04-05 01:53:00,
2013-04-04 21:58:00,34.7,21.0,29.55,NNE,22,0.0,1.6,53,0.00,,,0.00,Rainwise IP-100,2013-04-05 01:58:00,
2013-04-04 22:03:00,34.6,21.0,29.55,NNE,22,0.0,0.0,53,0.00,,,0.00,Rainwise IP-100,2013-04-05 02:03:00,
2013-04-04 22:08:00,34.9,21.0,29.55,NNE,22,0.0,0.0,53,0.00,,,0.00,Rainwise IP-100,2013-04-05 02:08:00,
2013-04-04 22:13:00,34.9,21.0,29.55,NNE,22,0.0,1.9,55,0.00,,,0.00,Rainwise IP-100,2013-04-05 02:13:00,
2013-04-04 22:18:00,34.6,21.0,29.55,NNW,337,2.3,4.0,55,0.00,,,0.00,Rainwise IP-100,2013-04-05 02:18:00,
2013-04-04 22:23:00,34.3,21.0,29.55,NNW,337,0.0,4.7,54,0.00,,,0.00,Rainwise IP-100,2013-04-05 02:23:00,
2013-04-04 22:29:00,34.2,21.0,29.54,NNW,337,3.3,3.5,55,0.00,,,0.00,Rainwise IP-100,2013-04-05 02:29:00,
2013-04-04 22:34:00,34.0,21.0,29.54,NW,315,3.7,5.4,55,0.00,,,0.00,Rainwise IP-100,2013-04-05 02:34:00,
2013-04-04 22:39:00,33.9,21.0,29.54,WNW,292,0.0,4.0,56,0.00,,,0.00,Rainwise IP-100,2013-04-05 02:39:00,
2013-04-04 22:44:00,33.8,21.0,29.53,WNW,292,0.0,1.4,56,0.00,,,0.00,Rainwise IP-100,2013-04-05 02:44:00,
2013-04-04 22:49:00,33.4,21.0,29.53,WNW,292,0.0,1.2,57,0.00,,,0.00,Rainwise IP-100,2013-04-05 02:49:00,
2013-04-04 22:55:00,33.1,21.0,29.53,WNW,292,0.0,0.0,59,0.00,,,0.00,Rainwise IP-100,2013-04-05 02:55:00,
2013-04-04 23:00:00,32.9,21.0,29.53,WNW,292,0.0,0.0,59,0.00,,,0.00,Rainwise IP-100,2013-04-05 03:00:00,
2013-04-04 23:05:00,32.7,21.0,29.53,WNW,292,0.0,1.2,59,0.00,,,0.00,Rainwise IP-100,2013-04-05 03:05:00,
2013-04-04 23:10:00,32.4,21.0,29.53,WNW,292,0.0,0.0,60,0.00,,,0.00,Rainwise IP-100,2013-04-05 03:10:00,
2013-04-04 23:15:00,32.2,21.0,29.53,WNW,292,0.0,0.0,61,0.00,,,0.00,Rainwise IP-100,2013-04-05 03:15:00,
2013-04-04 23:20:00,32.0,21.0,29.52,WNW,292,0.0,0.0,61,0.00,,,0.00,Rainwise IP-100,2013-04-05 03:20:00,
2013-04-04 23:25:00,31.9,21.0,29.52,WNW,292,0.0,0.0,62,0.00,,,0.00,Rainwise IP-100,2013-04-05 03:25:00,
2013-04-04 23:30:00,31.8,21.0,29.52,WNW,292,0.0,0.0,62,0.00,,,0.00,Rainwise IP-100,2013-04-05 03:30:00,
2013-04-04 23:35:00,31.5,21.0,29.52,WNW,292,0.0,0.0,63,0.00,,,0.00,Rainwise IP-100,2013-04-05 03:35:00,
2013-04-04 23:40:00,31.3,21.0,29.52,WNW,292,0.0,0.0,63,0.00,,,0.00,Rainwise IP-100,2013-04-05 03:40:00,
2013-04-04 23:45:00,31.1,21.0,29.52,WNW,292,0.0,0.0,64,0.00,,,0.00,Rainwise IP-100,2013-04-05 03:45:00,
2013-04-04 23:50:00,31.2,21.0,29.51,WNW,292,0.0,0.0,64,0.00,,,0.00,Rainwise IP-100,2013-04-05 03:50:00,
2013-04-04 23:55:00,31.1,21.0,29.51,WNW,292,0.0,0.0,65,0.00,,,0.00,Rainwise IP-100,2013-04-05 03:55:00,